| time (UTC) | temp F | wind direction | speed MPH | gust MPH | rain 1hr in | rain 24hr in | rain mn in | humidity % | barometer mb |
| 20260509093039 | 57 | 82 | 0.0 | 0.0 | 0.00 | 0.00 | 0.00 | 50 | 1008.3 |
| 20260509091534 | 58 | 74 | 0.0 | 2.0 | 0.00 | 0.00 | 0.00 | 48 | 1008.2 |
| 20260509090033 | 59 | 86 | 1.0 | 5.0 | 0.00 | 0.00 | 0.00 | 47 | 1008.1 |
| 20260509084533 | 59 | 42 | 2.0 | 6.0 | 0.00 | 0.00 | 0.00 | 46 | 1008.2 |
| 20260509083031 | 59 | 61 | 2.0 | 7.0 | 0.00 | 0.00 | 0.00 | 47 | 1008.1 |
| 20260509081540 | 59 | 86 | 0.0 | 4.0 | 0.00 | 0.00 | 0.00 | 46 | 1008.0 |
| 20260509080026 | 60 | 74 | 0.0 | 2.0 | 0.00 | 0.00 | 0.00 | 45 | 1007.9 |
| 20260509074522 | 61 | 70 | 2.0 | 7.0 | 0.00 | 0.00 | 0.00 | 44 | 1008.1 |
| 20260509073018 | 62 | 57 | 3.0 | 9.0 | 0.00 | 0.00 | 0.00 | 43 | 1008.1 |
| 20260509071520 | 62 | 57 | 4.0 | 10.0 | 0.00 | 0.00 | 0.00 | 42 | 1008.1 |
| 20260509070016 | 62 | 84 | 5.0 | 9.0 | 0.00 | 0.00 | 0.00 | 43 | 1008.1 |
| 20260509064513 | 63 | 49 | 6.0 | 11.0 | 0.00 | 0.00 | 0.00 | 42 | 1007.8 |
| 20260509063011 | 63 | 63 | 8.0 | 13.0 | 0.00 | 0.00 | 0.00 | 41 | 1007.5 |
| 20260509061512 | 64 | 41 | 7.0 | 12.0 | 0.00 | 0.00 | 0.00 | 40 | 1007.4 |
| 20260509060011 | 62 | 32 | 1.0 | 5.0 | 0.00 | 0.00 | 0.00 | 41 | 1007.4 |
| 20260509054508 | 62 | 39 | 2.0 | 4.0 | 0.00 | 0.00 | 0.00 | 41 | 1007.9 |
| 20260509053006 | 62 | 36 | 3.0 | 5.0 | 0.00 | 0.00 | 0.00 | 40 | 1007.7 |
| 20260509051502 | 62 | 58 | 1.0 | 3.0 | 0.00 | 0.00 | 0.00 | 39 | 1007.8 |
| 20260509050102 | 63 | 44 | 0.0 | 0.0 | 0.00 | 0.00 | 0.00 | 39 | 1007.9 |
| 20260509044559 | 63 | 72 | 0.0 | 0.0 | 0.00 | 0.00 | 0.00 | 38 | 1007.8 |
| 20260509043104 | 64 | 51 | 0.0 | 0.0 | 0.00 | 0.00 | 0.00 | 37 | 1007.8 |
| 20260509041558 | 65 | 49 | 0.0 | 0.0 | 0.00 | 0.00 | 0.00 | 36 | 1007.8 |
| 20260509040058 | 66 | 75 | 0.0 | 4.0 | 0.00 | 0.00 | 0.00 | 35 | 1007.8 |
| 20260509034603 | 66 | 44 | 2.0 | 4.0 | 0.00 | 0.00 | 0.00 | 35 | 1007.6 |
| 20260509033056 | 66 | 119 | 0.0 | 3.0 | 0.00 | 0.00 | 0.00 | 34 | 1007.6 |
| 20260509031602 | 67 | 48 | 0.0 | 3.0 | 0.00 | 0.00 | 0.00 | 32 | 1007.3 |
| 20260509030055 | 68 | 77 | 0.0 | 0.0 | 0.00 | 0.00 | 0.00 | 31 | 1007.2 |
| 20260509024555 | 69 | 53 | 0.0 | 0.0 | 0.00 | 0.00 | 0.00 | 31 | 1006.9 |
| 20260509023100 | 70 | 41 | 0.0 | 0.0 | 0.00 | 0.00 | 0.00 | 30 | 1006.7 |
| 20260509021554 | 72 | 52 | 0.0 | 3.0 | 0.00 | 0.00 | 0.00 | 29 | 1006.3 |
| 20260509020056 | 72 | 55 | 0.0 | 1.0 | 0.00 | 0.00 | 0.00 | 29 | 1006.2 |
| 20260509014552 | 74 | 49 | 0.0 | 3.0 | 0.00 | 0.00 | 0.00 | 28 | 1006.0 |
| 20260509013113 | 76 | 45 | 0.0 | 3.0 | 0.00 | 0.00 | 0.00 | 26 | 1005.9 |
| 20260509011551 | 77 | 8 | 3.0 | 10.0 | 0.00 | 0.00 | 0.00 | 25 | 1005.8 |
| 20260509010050 | 78 | 39 | 3.0 | 7.0 | 0.00 | 0.00 | 0.00 | 24 | 1005.6 |
| 20260509004549 | 79 | 47 | 4.0 | 8.0 | 0.00 | 0.00 | 0.00 | 23 | 1005.5 |
| 20260509003050 | 80 | 28 | 2.0 | 7.0 | 0.00 | 0.00 | 0.00 | 23 | 1005.5 |
| 20260509001549 | 80 | 37 | 0.0 | 11.0 | 0.00 | 0.00 | 0.00 | 23 | 1005.5 |
| 20260509000050 | 81 | 33 | 1.0 | 10.0 | 0.00 | 0.00 | 0.00 | 22 | 1005.5 |
| 20260508234547 | 81 | 27 | 4.0 | 13.0 | 0.00 | 0.00 | 0.00 | 23 | 1005.4 |
| 20260508233047 | 81 | 23 | 5.0 | 12.0 | 0.00 | 0.00 | 0.00 | 22 | 1005.4 |
| 20260508231552 | 82 | 358 | 4.0 | 13.0 | 0.00 | 0.00 | 0.00 | 22 | 1005.5 |
| 20260508230056 | 82 | 338 | 2.0 | 8.0 | 0.00 | 0.00 | 0.00 | 22 | 1005.4 |
| 20260508224600 | 82 | 23 | 3.0 | 11.0 | 0.00 | 0.00 | 0.00 | 21 | 1005.4 |
| 20260508223045 | 82 | 335 | 1.0 | 11.0 | 0.00 | 0.00 | 0.00 | 21 | 1005.2 |
| 20260508221555 | 83 | 294 | 2.0 | 17.0 | 0.00 | 0.00 | 0.00 | 21 | 1005.3 |
| 20260508220043 | 83 | 274 | 2.0 | 12.0 | 0.00 | 0.00 | 0.00 | 21 | 1005.3 |
| 20260508214543 | 83 | 39 | 5.0 | 12.0 | 0.00 | 0.00 | 0.00 | 21 | 1005.2 |
| 20260508213052 | 83 | 316 | 6.0 | 13.0 | 0.00 | 0.00 | 0.00 | 20 | 1005.5 |
| 20260508211531 | 83 | 344 | 4.0 | 11.0 | 0.00 | 0.00 | 0.00 | 20 | 1005.6 |
| 20260508210031 | 83 | 36 | 3.0 | 12.0 | 0.00 | 0.00 | 0.00 | 19 | 1005.7 |
| 20260508204528 | 83 | 77 | 3.0 | 15.0 | 0.00 | 0.00 | 0.00 | 20 | 1005.9 |
| 20260508203026 | 83 | 310 | 7.0 | 15.0 | 0.00 | 0.00 | 0.00 | 19 | 1005.9 |
| 20260508201530 | 84 | 1 | 4.0 | 12.0 | 0.00 | 0.00 | 0.00 | 20 | 1005.8 |
| 20260508200026 | 83 | 318 | 4.0 | 14.0 | 0.00 | 0.00 | 0.00 | 20 | 1005.9 |
| 20260508194520 | 83 | 1 | 5.0 | 11.0 | 0.00 | 0.00 | 0.00 | 20 | 1006.1 |
| 20260508193021 | 82 | 316 | 4.0 | 11.0 | 0.00 | 0.00 | 0.00 | 23 | 1006.2 |
| 20260508191517 | 82 | 345 | 3.0 | 9.0 | 0.00 | 0.00 | 0.00 | 24 | 1006.3 |
| 20260508190026 | 81 | 12 | 5.0 | 10.0 | 0.00 | 0.00 | 0.00 | 23 | 1006.6 |
| 20260508184511 | 81 | 350 | 2.0 | 9.0 | 0.00 | 0.00 | 0.00 | 24 | 1006.6 |
| 20260508183009 | 81 | 15 | 2.0 | 7.0 | 0.00 | 0.00 | 0.00 | 23 | 1006.7 |
| 20260508181518 | 81 | 318 | 3.0 | 9.0 | 0.00 | 0.00 | 0.00 | 23 | 1006.8 |
| 20260508180006 | 79 | 285 | 1.0 | 12.0 | 0.00 | 0.00 | 0.00 | 24 | 1007.0 |
| 20260508174501 | 79 | 274 | 1.0 | 8.0 | 0.00 | 0.00 | 0.00 | 26 | 1007.1 |
| 20260508173118 | 77 | 235 | 3.0 | 11.0 | 0.00 | 0.00 | 0.00 | 27 | 1007.3 |
| 20260508171620 | 77 | 272 | 2.0 | 6.0 | 0.00 | 0.00 | 0.00 | 29 | 1007.6 |
| 20260508170052 | 76 | 263 | 5.0 | 8.0 | 0.00 | 0.00 | 0.00 | 29 | 1007.8 |
| 20260508164551 | 75 | 240 | 5.0 | 8.0 | 0.00 | 0.00 | 0.00 | 31 | 1007.9 |
| 20260508163044 | 73 | 207 | 4.0 | 8.0 | 0.00 | 0.00 | 0.00 | 34 | 1008.1 |
| 20260508161545 | 72 | 266 | 3.0 | 9.0 | 0.00 | 0.00 | 0.00 | 37 | 1008.2 |
| 20260508160039 | 70 | 272 | 5.0 | 10.0 | 0.00 | 0.00 | 0.00 | 41 | 1008.5 |
| 20260508154536 | 70 | 204 | 4.0 | 10.0 | 0.00 | 0.00 | 0.00 | 43 | 1008.5 |
| 20260508153039 | 69 | 239 | 5.0 | 10.0 | 0.00 | 0.00 | 0.00 | 44 | 1008.6 |
| 20260508151541 | 69 | 203 | 6.0 | 12.0 | 0.00 | 0.00 | 0.00 | 45 | 1008.9 |
| 20260508150030 | 68 | 210 | 5.0 | 10.0 | 0.00 | 0.00 | 0.00 | 49 | 1008.7 |
| 20260508144526 | 66 | 206 | 6.0 | 13.0 | 0.00 | 0.00 | 0.00 | 54 | 1008.8 |
| 20260508143024 | 65 | 232 | 6.0 | 13.0 | 0.00 | 0.00 | 0.00 | 56 | 1009.1 |
| 20260508141522 | 64 | 202 | 6.0 | 14.0 | 0.00 | 0.00 | 0.00 | 56 | 1009.0 |
| 20260508140018 | 63 | 193 | 5.0 | 8.0 | 0.00 | 0.00 | 0.00 | 59 | 1009.3 |
| 20260508134517 | 60 | 215 | 2.0 | 7.0 | 0.00 | 0.00 | 0.00 | 63 | 1010.0 |
| 20260508133014 | 60 | 189 | 4.0 | 9.0 | 0.00 | 0.00 | 0.00 | 64 | 1009.5 |
| 20260508131514 | 58 | 205 | 4.0 | 10.0 | 0.00 | 0.00 | 0.00 | 67 | 1009.2 |
| 20260508130012 | 55 | 209 | 2.0 | 5.0 | 0.00 | 0.00 | 0.00 | 71 | 1009.4 |
| 20260508124519 | 53 | 176 | 0.0 | 5.0 | 0.00 | 0.00 | 0.00 | 73 | 1009.4 |
| 20260508123012 | 52 | 188 | 1.0 | 3.0 | 0.00 | 0.00 | 0.00 | 75 | 1009.0 |
| 20260508121509 | 51 | 203 | 0.0 | 5.0 | 0.00 | 0.00 | 0.00 | 76 | 1009.0 |
| 20260508120009 | 50 | 174 | 1.0 | 2.0 | 0.00 | 0.00 | 0.00 | 78 | 1008.9 |
| 20260508114505 | 50 | 183 | 0.0 | 0.0 | 0.00 | 0.00 | 0.00 | 75 | 1008.9 |
| 20260508113002 | 51 | 198 | 0.0 | 2.0 | 0.00 | 0.00 | 0.00 | 73 | 1009.1 |
| 20260508111603 | 52 | 207 | 2.0 | 6.0 | 0.00 | 0.00 | 0.00 | 72 | 1009.1 |
| 20260508104558 | 53 | 210 | 2.0 | 8.0 | 0.00 | 0.00 | 0.00 | 71 | 1009.2 |
| 20260508103051 | 54 | 183 | 3.0 | 6.0 | 0.00 | 0.00 | 0.00 | 70 | 1009.4 |
| 20260508101550 | 54 | 176 | 3.0 | 8.0 | 0.00 | 0.00 | 0.00 | 68 | 1009.5 |
| 20260508100045 | 55 | 186 | 2.0 | 7.0 | 0.00 | 0.00 | 0.00 | 67 | 1009.4 |
| 20260508094543 | 55 | 193 | 3.0 | 8.0 | 0.00 | 0.00 | 0.00 | 66 | 1009.6 |